Weather History for Baker, MT

Change the Weather History Date:

Saturday, August 30, 2014

  Actual Average Record
Temperature  
Mean Temperature 66 °F -  
Max Temperature 81 °F 90 °F 98 °F (2008)
Min Temperature 53 °F 60 °F 39 °F (2003)
Cooling Degree Days 2    
Growing Degree Days 16 (Base 50)    
Moisture  
Dew Point 55 °F    
Average Humidity 75    
Maximum Humidity 93    
Minimum Humidity 47    
Precipitation  
Precipitation 0.02 in - - ()
Sea Level Pressure  
Sea Level Pressure 29.77 in    
Wind  
Wind Speed 13 mph (SSE)    
Max Wind Speed 26 mph    
Max Gust Speed 34 mph    
Visibility 10 miles    
Events Rain    
Averages and records for this station are not official NWS values.
T = Trace of Precipitation, MM = Missing Value Source: NWS Daily Summary

Daily Weather History Graph

Daily Weather History Graph

Search for Another Location

Airport:

Trip Planner

Search our weather history database for the weather conditions in past years. The results will help you decide how hot, cold, wet, or windy it might be!

Date:

Astronomy

Aug. 30, 2014 Rise Set
Actual Time 6:14 AM MDT 7:39 PM MDT
Civil Twilight 5:43 AM MDT 8:10 PM MDT
Nautical Twilight 5:05 AM MDT 8:48 PM MDT
Astronomical Twilight 4:24 AM MDT 9:28 PM MDT
Moon 11:23 AM MDT (8/30) 9:55 PM MDT (8/30)
Length of Visible Light 14h 27m
Length of Day
13h 24m
Waxing Crescent, 23% of the Moon is Illuminated
Aug 30
Waxing Crescent
Sep 2
First Quarter
Sep 8
Full
Sep 15
Last Quarter
Sep 24
New

Hourly Weather History & Observations

Time (MDT) Temp. Heat Index Dew Point Humidity Pressure Visibility Wind Dir Wind Speed Gust Speed Precip Events Conditions
12:51 AM 53.1 °F - 51.1 °F 93% 29.96 in 10.0 mi SE 8.1 mph - N/A   Clear
1:51 AM 53.1 °F - 51.1 °F 93% 29.94 in 10.0 mi SE 9.2 mph - N/A   Clear
2:51 AM 54.0 °F - 52.0 °F 93% 29.91 in 10.0 mi SE 12.7 mph - N/A   Clear
3:51 AM 54.0 °F - 51.1 °F 90% 29.89 in 10.0 mi SE 11.5 mph - N/A   Clear
4:51 AM 54.0 °F - 51.1 °F 90% 29.86 in 10.0 mi SE 11.5 mph - N/A   Clear
5:51 AM 54.0 °F - 51.1 °F 90% 29.85 in 10.0 mi SE 15.0 mph - N/A   Clear
6:51 AM 55.0 °F - 52.0 °F 89% 29.84 in 10.0 mi SE 16.1 mph - N/A   Clear
7:51 AM 57.9 °F - 53.1 °F 84% 29.83 in 10.0 mi SE 20.7 mph 29.9 mph N/A   Clear
9:51 AM 66.0 °F - 55.9 °F 70% 29.78 in 10.0 mi SE 26.5 mph 33.4 mph N/A   Clear
10:51 AM 68.0 °F - 55.9 °F 65% 29.75 in 10.0 mi SSE 24.2 mph 34.5 mph N/A   Clear
11:51 AM 71.1 °F - 57.0 °F 61% 29.75 in 10.0 mi SE 19.6 mph - N/A   Clear
12:51 PM 75.0 °F - 57.9 °F 55% 29.73 in 10.0 mi SE 13.8 mph 23.0 mph N/A   Partly Cloudy
1:51 PM 75.9 °F - 57.9 °F 54% 29.71 in 10.0 mi SSE 13.8 mph - N/A   Clear
2:51 PM 80.1 °F 80.6 °F 57.9 °F 47% 29.67 in 10.0 mi South 8.1 mph - N/A   Partly Cloudy
3:51 PM 78.1 °F - 57.0 °F 48% 29.67 in 10.0 mi NW 11.5 mph - N/A   Clear
4:51 PM 73.9 °F - 57.0 °F 55% 29.68 in 10.0 mi NW 15.0 mph - N/A   Partly Cloudy
5:51 PM 70.0 °F - 57.9 °F 65% 29.68 in 10.0 mi NW 15.0 mph 20.7 mph N/A   Partly Cloudy
6:51 PM 66.9 °F - 57.0 °F 70% 29.68 in 10.0 mi NW 17.3 mph 25.3 mph N/A   Mostly Cloudy
7:51 PM 64.9 °F - 57.0 °F 75% 29.69 in 10.0 mi WNW 15.0 mph - N/A   Scattered Clouds
9:51 PM 62.1 °F - 57.0 °F 84% 29.71 in 10.0 mi WNW 8.1 mph - N/A   Partly Cloudy
10:51 PM 61.0 °F - 57.9 °F 90% 29.70 in 10.0 mi West 4.6 mph - 0.01 in Rain Light Rain
11:51 PM 59.0 °F - 57.0 °F 93% 29.71 in 10.0 mi West 9.2 mph - 0.01 in   Mostly Cloudy